COSMOS 2251 DEB, 40803

Orbit data source: Space-Track

COSMOS 2251 DEB, 40803 is space debris in LEO originally from a launch on Wed, 16 Jun 1993 UTC launched from the Plesetsk Missile And Space Complex (PKMTR). The debris from Iridium 33, an American commercial communications satellite, has been tracked extensively since its accidental collision with the defunct Russian satellite Cosmos 2251 in 2009. This event, occurring at high speed in low Earth orbit (LEO), generated thousands of pieces of space debris, significantly increasing the risk of further collisions. The Iridium 33 debris cloud has impacted space traffic management and orbital debris mitigation strategies, making it a subject of ongoing study in space situational awareness.

Loading next visibility...
Identifier
40803, 1993-036BWG
Orbit
LEO
Country
Flag of CISCIS
Related business
Manufacturer
Unknown
Mission
Spacecraft
Bus & Motor
Unknown
Mass
Unknown
Launch date (UTC)
1993-06-16 (32 years ago)
Launch vehicle
Unknown
Launch site
Plesetsk Missile And Space Complex (PKMTR)
Object type
Payload
Rocket body
Debris
Shape & HBR
Unknown shape, 0.1 m
Radar Cross Section
Small (<0.1 m²)

Expand to show TLE details & history
Last TLE update: 2 weeks ago

TLE from 2 weeks ago
0 COSMOS 2251 DEB
1 40803U 93036BWG 25299.29696668  .00001332  00000-0  33718-3 0  9999
2 40803  74.0110 141.3605 0032556   7.1802 352.9818 14.51631740580640
Epoch: 2025-10-26T07:07Z
TLE epoch observation values (Epoch: 2025-10-26T07:07:37.921Z)
Latitude
-0.00002°
Longitude
-0.4627°
Altitude
700.013 km
Speed
7.518 km/s
True Right ascension
09h 25m 26s
True Declination
0° 00' 00"
Sunlit
Object was in daylight at epoch
Visualization orbit readout
Latitude
Unknown
Longitude
Unknown
Altitude
Unknown
Speed
Unknown
Apparent Right ascension
Unknown
Apparent Declination
Unknown
Sunlit
N/A
Visualization observer readout
Local Sidereal Time
19:57:40
Azimuth
Unknown
Elevation
Unknown
Doppler factor
Unknown
Orbital elements
Apogee altitude
741.035 km
Perigee altitude
694.831 km
Semi-major axis
7,096.07 km
Eccentricity
0.00326
Inclination
74.011°
RAAN
141.3605°
Arg. of periapsis
7.1802°
True anomaly
352.93603°
Mean anomaly
352.9818°
Eccentric anomaly
352.95893°
Mean motion
3.63092 °/min
Orbital period
99.15 mins
BSTAR
0.00033718
Loading maneuver chart data...
Computing Atmospheric mass density...

Documentation

Showing up to 5 results
|